Weather Roundup
Issued by NWS Chicago, IL

Home | Current Version | Previous Version | Text Only | Print | Product List | Glossary On
Versions: 1 2 3 4 5 6 7 8 9 10 11 12 13 14 15 16 17 18 19 20 21 22 23 24 25 26 27 28 29 30 31 32 33 34 35 36 37 38 39 40 41 42 43 44 45 46 47 48 49 50
139
NZUS59 KLOT 291908
HRRLOT

CHICAGO AREA WEATHER ROUNDUP
NATIONAL WEATHER SERVICE CHICAGO/ROMEOVILLE IL
200 PM CDT FRI JUL 29 2016

NOTE: "FAIR" INDICATES FEW OR NO CLOUDS BELOW 12,000 FEET WITH NO
SIGNIFICANT WEATHER AND/OR OBSTRUCTIONS TO VISIBILITY.

* THESE STATIONS ARE NOT UNDER NWS QUALITY CONTROL. THEY ALSO MAY NOT
  REPORT WEATHER SUCH AS PRECIPITATION OR FOG.

ILZ005-006-012>014-019>023-292000-
NORTHEAST ILLINOIS

CITY           SKY/WX    TMP DP  RH WIND       PRES   REMARKS
OHARE          PTSUNNY   76  68  76 NE13      29.89F
MIDWAY         CLOUDY    77  70  79 E13       29.90F THUNDER
AURORA         PTSUNNY   81  72  74 W6        29.91S THUNDER HX  85
LANSING*       LGT RAIN  70  67  90 E6        29.91F
JOLIET*        PTSUNNY   84  74  70 SW6       29.89F HX  91
WAUKEGAN       PTSUNNY   77  69  76 NE13      29.92F
DUPAGE AIRPORT TSTM      76  68  76 NE12      29.90R
WHEELING       MOSUNNY   77  68  73 NE13G22   29.92F
KANKAKEE*      MOSUNNY   85  73  66 SW7       29.90F HX  91
MORRIS*        MOSUNNY   82  71  68 W5        29.88F HX  87
LEWIS AIRPORT* CLOUDY    73  67  80 E15       29.89F
NORTHERLY ISL    N/A     75  69  81 NE12        N/A
$$

WIZ051-052-058>065-066-070>072-292000-
SOUTHEAST WISCONSIN

CITY           SKY/WX    TMP DP  RH WIND       PRES   REMARKS
MILWAUKEE      CLOUDY    74  65  73 NE14      29.98S
KENOSHA*       CLOUDY    76  66  71 E14       29.95F
RACINE*        PTSUNNY   75  66  73 NE13      29.98F
BURLINGTON     CLOUDY    75  66  73 NE10      29.96F
WAUKESHA       CLOUDY    70  63  78 NE12      30.00S
WEST BEND      DRIZZLE   68  63  83 NE7       30.00F
$$

INZ001>003-010>013-019-020-292000-
NORTHWEST INDIANA

CITY           SKY/WX    TMP DP  RH WIND       PRES   REMARKS
GARY*          TSTM      75  75 100 NW5       29.93S
MICHIGAN CITY* NOT AVBL
RENSSELAER*    NOT AVBL
VALPARAISO     CLOUDY    83  69  62 SE8       29.89F THUNDER HX  86
$$

LMZ740>746-292000-
SOUTHERN LAKE MICHIGAN

STATION/POSITION TIME  SKY/WX   TEMP WIND        PRES    VSBY
                                AIR  DIR/SP/G
                 (UTC)          (F)  (DEG/KT/KT) (MB)    (MI)
HARRISON CRIB    1800            74   30/ 10/ 10   N/A
BURNHAM HARBOR   1900            75   40/  8/ 11   N/A
CALUMET HARBOR   1800            74  360/ 10/ 11 1012.9F
BURNS HARBOR     1800            76   50/  9/ 12 1013.2F
MICHIGAN CITY    1800            76  360/ 12/ 13   N/A
$$

ABBREVIATIONS USED IN REMARKS
   TC - TEMPERATURE IN CELSIUS
  WCI - WIND CHILL INDEX
   HX - HEAT INDEX
  VSB - VISIBILITY
$$




USA.gov is the U.S. government's official web portal to all federal, state and local government web resources and services.